Probability
0 0 0 0 0 0 0 0 0 0 0 0 0 0 0 0 0 0 0 0 0 0 1 0 1 2 1 0 0 0 0 0 0 0 0 0 0 0 0 1 2 3 4 5 6 6 6 6 6
0 0 0 0 0 0 0 0 0 0 0 0 0 0 0 0 0 0 0 0 0 1 1 1 2 3 2 1 0 0 0 0 0 0 0 0 0 0 0 0 1 2 4 5 6 6 6 6 5
0 0 0 0 0 0 0 0 0 0 0 0 0 0 0 0 0 0 0 0 0 1 2 3 5 6 6 4 2 0 0 0 0 0 0 0 0 0 0 0 0 1 3 5 5 5 5 5 4
0 0 0 0 0 0 0 0 0 0 0 0 0 0 0 0 0 0 0 0 0 1 3 5 9 10 9 7 4 2 2 1 0 0 1 1 0 0 0 0 0 1 2 2 3 3 3 4 4
0 0 0 0 0 0 0 0 0 0 0 0 0 0 0 0 0 0 0 0 0 1 3 7 11 12 11 8 6 5 4 2 0 0 1 1 0 0 0 1 1 1 1 1 2 2 2 2 2
0 0 0 0 0 0 0 0 0 0 0 0 0 0 0 0 0 0 0 0 0 0 2 7 12 13 11 9 7 7 6 4 2 0 0 0 0 0 0 1 2 2 2 1 1 1 1 1 1
0 0 0 0 0 0 0 0 0 0 0 0 0 0 0 0 0 0 1 1 1 1 2 5 9 11 11 8 7 7 7 6 4 2 0 0 0 0 0 1 2 3 3 2 1 0 0 0 0
0 0 0 0 0 0 0 0 0 0 0 0 0 0 0 0 0 0 1 2 2 2 3 4 5 7 8 6 5 6 7 7 6 4 1 0 0 0 0 0 2 3 3 2 1 0 0 0 0
0 0 0 0 0 0 0 0 0 0 0 0 0 0 0 0 0 0 1 1 2 2 2 3 3 4 5 4 4 4 6 6 6 4 1 0 0 0 0 0 1 2 2 1 0 0 0 0 0
0 0 0 0 0 0 0 0 0 0 0 0 0 0 0 0 0 0 0 0 0 0 1 1 1 2 4 4 4 4 5 6 5 3 1 0 0 0 0 0 0 1 1 0 0 0 0 0 0
0 0 0 0 0 0 0 0 0 0 0 0 1 2 1 0 0 0 0 0 0 0 0 0 0 1 3 4 4 5 5 5 5 3 1 1 0 0 0 0 0 0 0 0 0 0 0 0 0
0 0 0 0 0 0 0 0 0 0 0 1 2 3 2 0 0 0 0 0 0 0 0 0 0 1 2 3 4 6 6 5 5 4 4 2 1 0 0 0 0 0 0 0 0 0 0 0 0
0 0 0 0 0 0 0 0 0 0 0 1 2 2 1 0 0 0 0 0 0 0 0 0 0 0 1 1 3 5 6 5 5 6 5 3 1 1 1 1 1 0 0 0 0 0 0 0 0
0 0 0 0 0 0 0 0 0 0 0 1 1 1 0 0 0 0 0 0 0 0 0 0 0 0 0 0 1 3 4 4 4 5 4 2 1 2 2 2 2 1 0 0 0 0 0 0 0
0 0 0 0 0 0 0 0 0 0 0 0 0 0 0 0 0 0 0 0 0 0 0 0 0 0 0 0 0 1 2 3 2 2 2 1 1 2 3 3 2 1 0 0 0 0 0 0 0
0 0 0 0 0 0 0 0 0 0 0 0 0 0 0 0 0 0 0 0 0 0 0 0 0 0 0 0 0 0 1 2 1 0 1 1 1 1 1 2 1 0 0 0 0 0 0 0 0
0 0 0 0 0 0 0 0 0 0 0 0 0 0 0 0 0 0 0 0 0 0 0 0 0 0 0 0 0 0 0 1 2 1 0 0 0 0 0 0 0 0 0 0 0 0 0 0 0
0 0 0 0 0 0 0 0 0 0 0 0 0 0 0 0 0 0 0 0 0 0 0 0 0 0 0 0 0 0 0 1 2 2 1 0 0 0 0 0 0 0 0 0 0 0 0 0 0
0 0 0 0 0 0 0 0 0 0 0 0 0 0 0 0 0 0 0 0 0 0 0 0 0 0 0 0 0 0 0 0 1 2 1 0 0 0 0 0 0 0 0 0 0 0 0 0 0
0 0 0 0 0 0 0 0 0 0 0 0 0 0 0 0 0 0 0 0 0 0 0 0 0 0 0 0 0 0 0 0 0 1 1 1 0 0 0 0 0 0 0 0 0 0 0 0 0
0 0 0 0 0 0 0 0 0 0 0 0 0 0 0 0 0 0 0 0 0 0 0 0 0 0 0 0 0 0 0 0 0 0 1 1 0 0 0 0 0 0 0 0 0 0 0 0 0
0 0 0 0 0 0 0 0 0 0 0 0 0 0 0 0 0 0 0 0 0 0 0 0 0 0 0 0 0 0 0 0 0 0 0 0 0 0 0 0 0 0 0 0 0 0 0 0 0
0 0 0 0 0 0 0 0 0 0 0 0 0 0 0 0 0 0 0 0 0 0 0 0 0 0 0 0 0 0 0 0 0 0 0 0 0 0 0 0 0 0 0 0 0 0 0 0 0
0 0 0 0 0 0 0 0 0 0 0 0 0 0 0 0 0 0 0 0 0 0 0 0 0 0 0 0 0 0 0 0 0 0 0 0 0 0 1 1 1 0 0 0 0 0 0 0 0
0 0 0 0 0 0 0 0 0 0 0 0 0 0 0 0 0 0 0 0 0 0 0 0 0 0 0 0 0 0 0 0 0 0 0 0 0 0 1 2 1 0 0 0 0 0 0 0 0
0 0 0 0 0 0 0 0 0 0 0 0 0 0 0 0 0 0 0 0 0 0 1 0 0 0 0 0 0 0 0 0 0 0 0 0 0 0 1 1 1 0 0 0 0 0 0 0 0
0 0 0 0 0 0 0 0 0 0 0 0 0 0 0 0 0 0 0 0 0 0 0 0 0 0 0 0 0 0 0 0 0 0 0 0 0 0 0 0 0 0 0 0 0 0 0 0 0
0 0 0 0 0 0 0 0 0 0 0 0 0 0 0 0 0 0 0 0 0 0 0 0 0 0 0 0 0 0 0 0 0 0 0 0 0 0 0 0 0 0 0 0 0 0 0 0 0
0 0 0 0 0 0 0 0 0 0 0 0 0 0 0 0 0 0 0 0 0 0 0 0 0 0 0 0 0 0 0 0 0 0 0 0 0 0 0 0 0 0 0 0 0 0 0 0 0
0 0 0 0 0 0 0 0 0 0 0 0 0 0 0 0 0 0 0 0 0 0 0 0 0 0 0 0 0 0 0 0 0 0 0 0 0 0 0 0 0 0 0 0 0 0 0 0 0
Wind_Speed
10 5 2 4 7 5 1 3 2 1 1 1 3 6 8 5 3 5 2 2 4 3 2 3 6 8 9 9 9 9 9 9 9 9 9 10 10 10 10 10 10 10 10 10 11 11 11 11 11
4 3 5 6 6 2 4 3 2 2 3 2 4 5 7 5 3 5 2 2 4 4 3 3 7 8 9 9 9 9 9 9 9 9 9 9 10 10 10 10 10 10 9 10 10 10 10 10 10
3 2 5 5 4 6 5 3 3 1 2 3 4 5 5 4 3 2 2 4 5 4 3 3 7 8 9 9 9 9 9 9 8 9 9 9 9 9 10 10 10 10 10 9 9 9 9 9 9
3 5 6 5 3 4 5 4 3 3 3 4 5 6 4 3 1 2 4 6 6 4 3 4 8 8 9 9 9 9 9 9 8 8 9 8 9 9 9 9 9 9 9 9 9 9 8 8 8
4 5 5 2 3 2 2 2 4 3 2 2 5 5 3 3 4 6 6 6 6 4 4 4 8 8 9 9 9 9 9 9 8 8 8 8 8 9 8 9 9 9 9 9 9 8 8 8 8
5 5 5 3 3 2 1 1 3 3 2 3 5 5 3 1 4 5 6 6 6 5 4 4 7 8 8 8 8 9 9 9 8 8 8 8 8 8 8 8 8 8 8 8 8 8 8 8 8
5 5 4 5 4 3 2 1 3 4 3 2 4 6 3 1 2 4 5 6 5 5 5 4 4 5 7 8 8 8 8 8 9 8 8 8 8 8 8 8 8 8 7 8 8 8 8 8 8
4 5 3 3 4 4 2 2 2 3 2 1 3 7 5 4 3 5 6 6 5 5 5 5 4 4 3 4 7 8 8 8 8 8 8 7 7 7 7 6 7 7 7 7 7 8 8 8 7
4 5 3 5 5 4 2 3 2 2 4 3 3 3 4 8 6 7 6 5 5 5 4 4 4 3 3 3 5 6 6 7 7 6 7 6 3 3 4 5 6 7 7 6 7 7 7 7 6
4 4 5 3 3 4 3 3 3 3 3 2 3 4 7 8 7 6 5 3 3 3 3 3 3 3 2 3 2 2 3 3 3 3 3 3 2 2 3 4 6 6 6 6 6 6 6 5 3
3 4 2 0 1 3 3 2 2 5 2 4 6 7 7 7 6 5 4 3 2 1 2 3 3 3 3 2 2 1 1 2 2 3 3 2 2 2 2 2 3 3 4 3 4 3 3 3 2
3 0 1 1 1 2 3 2 2 2 3 3 6 9 8 7 6 5 4 3 2 2 2 2 3 3 3 2 2 1 1 1 1 2 2 2 2 2 2 1 2 2 2 2 2 1 2 2 2
1 1 1 1 3 3 3 2 2 1 2 5 7 7 7 6 4 3 3 2 2 2 1 2 2 2 2 3 2 2 1 1 1 1 1 2 1 1 1 1 1 1 1 1 1 1 1 2 2
2 1 1 0 1 1 3 1 2 3 3 6 6 6 5 5 4 3 2 2 2 1 1 1 2 3 3 2 2 1 1 1 1 1 1 1 1 1 1 1 1 1 1 1 1 1 1 1 1
2 2 2 1 1 2 4 1 4 4 5 5 4 4 4 3 3 3 3 3 3 2 1 1 2 3 3 2 2 2 1 1 1 1 1 1 1 1 1 0 1 1 1 1 1 1 1 1 1
2 3 1 3 3 2 4 5 3 4 6 5 4 3 3 2 2 2 2 2 2 2 2 2 2 3 3 2 2 2 2 2 1 1 1 1 1 1 1 0 1 1 1 0 0 0 1 1 1
2 1 3 3 3 2 4 6 3 3 5 5 4 4 3 1 1 1 2 3 3 3 3 2 2 2 2 2 2 2 2 2 1 1 1 1 1 1 1 0 1 1 1 0 0 0 0 0 1
5 4 3 5 3 2 4 6 4 3 5 5 4 4 3 3 2 2 2 2 3 3 3 2 2 2 2 2 2 2 3 2 2 1 1 2 1 1 1 0 1 1 1 1 1 1 1 0 0
3 3 4 4 2 2 5 7 6 4 4 4 4 4 4 3 1 1 2 3 3 3 3 2 2 1 2 2 2 2 2 2 2 2 2 2 2 1 1 1 0 1 0 1 1 1 0 1 1
2 2 3 3 1 1 3 7 5 4 5 6 6 5 5 3 2 2 2 2 2 2 2 1 1 1 1 1 0 0 1 1 2 2 2 2 2 1 1 1 1 0 0 1 1 0 0 1 0
3 4 4 3 3 2 2 6 3 2 2 2 3 4 4 5 5 3 2 1 1 1 1 1 1 0 0 1 1 1 2 2 2 3 2 2 2 1 1 1 1 1 0 1 1 1 1 1 1
4 3 2 1 1 3 1 5 6 4 2 4 4 3 4 4 4 4 3 2 2 1 1 1 1 0 0 0 1 1 0 1 2 2 3 3 2 2 1 1 1 1 1 1 2 1 1 2 2
3 1 1 1 2 2 2 3 8 2 4 6 5 4 4 4 4 4 4 3 2 1 1 1 1 0 0 0 1 1 1 2 2 2 3 3 2 2 2 1 1 1 1 2 2 2 1 2 2
2 4 4 4 3 3 6 5 8 5 6 4 4 4 4 3 3 3 3 3 1 1 1 1 1 1 1 1 1 2 2 2 2 3 2 3 2 2 2 2 2 2 2 2 2 2 2 2 2
2 4 3 3 1 7 3 5 9 5 4 5 5 4 4 3 3 2 2 2 2 2 2 1 2 2 2 2 2 2 3 3 4 3 3 3 3 3 3 3 2 2 2 3 2 2 3 3 3
4 6 6 6 6 5 2 7 7 3 1 2 2 2 2 2 2 3 3 3 2 3 2 2 3 3 3 2 3 3 3 2 3 4 3 3 3 4 4 3 3 3 3 3 3 2 3 2 3
4 4 4 4 1 2 6 6 6 0 0 1 1 1 1 2 2 2 2 2 2 2 3 3 3 3 3 3 3 3 3 3 4 4 4 3 4 4 4 4 3 3 3 3 3 3 3 3 3
1 4 4 4 4 5 6 5 5 4 4 2 2 2 2 2 2 2 2 2 2 2 2 2 3 3 3 3 4 3 4 4 4 4 4 4 4 5 4 4 3 3 3 3 3 3 3 3 3
2 2 3 3 4 5 5 7 5 7 6 5 5 4 3 3 3 2 2 2 2 2 2 2 2 3 3 4 4 4 4 4 4 4 5 5 4 5 4 4 4 4 4 4 4 4 4 4 4
3 4 6 5 5 4 4 9 2 3 3 3 3 3 2 2 2 2 2 2 2 2 2 3 3 3 4 4 4 5 5 5 5 5 5 5 5 5 5 5 5 5 5 4 5 5 4 5 5
Wind_Direction
331 331 58 58 59 58 210 250 207 123 87 58 76 92 100 90 107 138 161 115 110 116 97 84 71 78 79 76 76 72 68 67 66 66 65 63 63 64 66 67 68 70 71 72 73 75 76 76 77
330 348 55 62 93 129 251 251 204 195 163 135 71 76 79 76 69 100 110 113 111 111 99 91 76 78 81 78 76 74 70 69 67 67 66 65 64 64 64 65 65 66 69 71 73 75 77 76 74
329 51 81 80 120 177 204 224 196 138 101 102 78 55 78 89 93 114 145 124 99 93 86 91 80 80 80 79 75 73 71 69 66 65 64 65 65 64 64 64 63 63 65 67 72 75 75 74 73
55 51 58 83 176 215 194 194 174 130 73 63 95 75 64 31 104 127 120 106 93 83 79 88 80 80 77 79 76 72 71 71 68 66 64 63 64 65 63 62 62 64 65 64 68 72 72 73 74
61 79 77 87 217 240 205 188 161 131 118 82 99 101 83 8 71 101 103 98 95 83 75 86 80 78 75 75 75 72 68 67 70 70 66 63 63 64 64 62 62 65 67 67 67 69 68 67 71
60 73 106 187 214 224 224 186 139 114 115 91 99 109 116 66 76 90 96 91 93 89 82 78 75 72 69 69 71 71 69 63 62 67 67 63 60 60 62 62 63 66 71 71 69 64 62 65 68
106 110 158 179 184 209 219 137 135 136 120 131 125 118 138 146 98 99 96 89 82 76 70 64 67 64 61 62 63 64 64 60 56 57 61 58 55 56 59 58 60 62 69 72 69 63 56 59 66
123 113 147 185 179 208 189 94 84 116 135 52 105 138 172 188 132 94 86 77 73 64 59 48 49 55 54 56 59 56 60 60 56 53 52 53 50 48 52 49 54 57 62 68 65 60 54 51 56
93 90 184 201 186 194 157 112 55 59 89 51 51 112 140 135 116 91 74 57 57 53 44 47 40 39 47 58 54 49 53 55 54 51 47 48 43 39 42 39 47 49 51 61 65 57 48 42 44
87 149 207 206 179 163 145 131 143 96 79 81 63 64 105 119 115 109 101 92 70 49 34 35 38 30 36 53 53 38 42 46 48 45 41 37 35 38 41 34 40 43 42 46 54 50 40 32 29
117 170 196 166 118 128 122 116 121 130 183 194 169 147 129 121 119 124 124 122 115 96 52 34 36 32 32 39 49 34 29 40 43 42 38 40 39 36 35 32 29 33 36 33 33 36 28 24 18
126 204 164 154 82 107 131 122 78 161 207 168 151 142 137 138 145 149 147 136 110 87 62 37 36 37 32 28 40 50 38 34 42 35 41 52 49 37 29 28 22 23 17 22 18 12 20 26 20
155 188 65 94 86 90 93 101 121 218 165 121 119 125 143 150 153 146 136 126 111 93 52 34 42 43 34 38 27 43 21 18 34 43 37 54 66 55 33 18 30 14 7 18 6 355 11 17 16
161 128 65 64 120 123 116 111 131 230 147 128 132 146 157 160 156 134 129 144 143 141 121 54 53 48 44 45 30 27 15 354 11 46 25 52 79 88 52 8 32 8 350 347 346 329 359 357 5
96 82 2 275 173 159 104 309 210 196 138 136 144 149 151 156 149 161 174 174 169 165 130 86 76 54 49 46 29 21 9 15 4 355 10 25 54 101 96 24 348 320 338 349 357 356 21 13 4
75 83 274 262 180 161 139 243 220 170 146 155 155 148 144 156 167 174 172 169 156 136 113 80 72 58 48 40 29 17 6 19 8 353 9 15 32 56 82 107 297 306 333 343 323 34 22 355 348
49 182 229 266 203 159 176 238 223 172 159 171 172 168 168 167 200 179 157 160 156 146 129 97 71 67 47 38 34 21 17 9 357 1 10 356 18 32 38 200 261 301 338 346 304 8 5 295 326
210 211 224 230 221 168 215 244 253 200 182 191 183 178 176 186 215 191 158 146 141 129 118 102 79 64 55 46 34 23 17 358 357 358 4 0 358 12 12 23 322 321 12 347 335 331 331 246 284
173 188 228 243 240 200 225 249 261 236 200 192 191 189 190 205 209 142 125 114 110 106 109 112 97 63 63 49 34 11 351 340 339 340 352 356 344 0 3 4 330 344 329 292 306 326 313 320 42
185 219 249 287 340 241 258 271 264 228 203 196 191 189 187 167 113 107 100 103 115 123 120 115 111 96 61 49 14 316 308 308 318 315 328 341 342 334 344 350 289 294 333 329 325 328 255 278 62
225 209 223 241 335 348 339 298 252 247 201 185 181 178 176 168 165 162 148 146 121 126 159 168 176 126 43 47 45 24 13 351 347 332 322 325 326 316 308 315 298 277 196 236 285 251 207 228 245
233 218 202 200 136 270 163 275 266 231 230 219 216 191 184 180 169 168 167 172 181 207 197 187 187 137 102 116 116 101 359 303 296 298 299 301 302 305 305 297 300 268 250 247 264 286 261 219 234
197 140 154 169 170 291 245 218 273 222 226 229 219 202 193 189 181 182 185 189 193 204 198 198 191 209 257 216 170 173 270 276 292 294 301 299 294 290 280 285 276 272 260 250 255 273 252 241 241
130 70 50 53 79 262 222 191 264 223 209 209 211 204 196 185 186 194 188 178 185 200 200 196 194 239 251 236 219 205 232 263 282 292 283 296 289 285 268 271 259 257 261 254 247 243 239 244 253
98 100 36 349 322 249 208 207 248 240 202 192 198 204 195 177 179 184 187 197 201 205 214 218 221 246 247 238 240 233 229 236 241 262 258 276 283 281 260 262 253 255 257 261 258 252 249 242 247
196 159 168 204 229 272 270 232 253 254 209 170 175 184 177 181 189 200 205 205 214 221 221 221 233 244 247 244 249 247 238 239 246 253 250 251 263 261 252 246 247 254 256 267 258 259 257 253 242
161 196 174 145 170 266 261 275 292 254 167 140 153 152 202 220 218 223 224 213 215 237 239 225 227 239 247 249 252 253 247 247 252 259 253 250 264 271 257 247 248 257 256 257 258 256 257 256 250
178 154 124 148 184 245 272 257 241 231 225 214 212 219 241 249 239 240 235 228 242 244 253 259 239 236 244 247 245 258 250 247 249 254 256 250 259 267 259 251 249 252 256 256 251 254 257 259 260
162 169 162 161 183 187 250 261 227 204 200 201 215 218 221 237 242 244 251 252 258 272 262 254 264 264 259 253 251 255 255 253 253 253 256 252 252 259 252 248 244 246 250 250 249 250 255 256 264
199 193 163 177 223 203 222 266 282 200 195 191 215 230 240 248 257 257 262 279 284 278 269 257 258 259 264 262 257 255 258 256 252 253 254 255 251 257 251 249 241 245 249 247 248 248 250 248 252